FDX323 KMEM-KLAX

Flight info

Callsign FDX323
Flight time N/A
Altitude 30000
Route DUCKZ5 HELAR KLUBB TCC DRK GABBL HLYWD1
Aircraft B77L/H-SDE1E2E3FGHIJ2J3J4J5M1RWXY/LB1D1

Departure

Time 2026-05-04 15:56
Airport Memphis International Airport (KMEM)

Arrival

Time N/A
Airport Los Angeles International Airport (KLAX)
Time Latitude Longitude Altitude Speed Heading
2026-05-04 15:38 35.06121 -89.97450 349 ft 0 kts 182°
2026-05-04 15:47 35.06135 -89.97449 349 ft 2 kts 194°
2026-05-04 15:47 35.06149 -89.97443 349 ft 2 kts 208°
2026-05-04 15:48 35.06162 -89.97433 349 ft 2 kts 220°
2026-05-04 15:48 35.06172 -89.97420 349 ft 2 kts 233°
2026-05-04 15:48 35.06185 -89.97388 349 ft 2 kts 258°
2026-05-04 15:49 35.06187 -89.97370 349 ft 2 kts 271°
2026-05-04 15:49 35.06187 -89.97356 349 ft 0 kts 274°
2026-05-04 15:52 35.06187 -89.97362 349 ft 2 kts 271°
2026-05-04 15:52 35.06187 -89.97421 349 ft 11 kts 270°
2026-05-04 15:52 35.06168 -89.97530 349 ft 14 kts 214°
2026-05-04 15:52 35.06054 -89.97540 349 ft 18 kts 181°
2026-05-04 15:53 35.05920 -89.97513 349 ft 21 kts 164°
2026-05-04 15:53 35.05769 -89.97485 349 ft 23 kts 179°
2026-05-04 15:53 35.05599 -89.97487 349 ft 24 kts 179°
2026-05-04 15:53 35.05493 -89.97504 349 ft 9 kts 221°
2026-05-04 15:54 35.05489 -89.97510 349 ft 0 kts 228°
2026-05-04 15:54 35.05486 -89.97514 349 ft 2 kts 228°
2026-05-04 15:55 35.05443 -89.97574 349 ft 15 kts 229°
2026-05-04 15:55 35.05350 -89.97614 349 ft 18 kts 179°
2026-05-04 15:55 35.05030 -89.97608 349 ft 82 kts 179°
2026-05-04 15:55 35.04218 -89.97588 350 ft 149 kts 179°
2026-05-04 15:56 35.03057 -89.97541 699 ft 175 kts 180°
2026-05-04 15:56 35.01848 -89.97468 1615 ft 174 kts 180°
2026-05-04 15:56 35.00635 -89.97405 2195 ft 182 kts 180°
2026-05-04 15:56 34.99338 -89.97533 2639 ft 195 kts 196°
2026-05-04 15:57 34.98061 -89.98222 3069 ft 212 kts 213°
2026-05-04 15:57 34.96780 -89.99274 3596 ft 229 kts 213°
2026-05-04 15:57 34.95461 -90.00441 4184 ft 244 kts 226°
2026-05-04 15:57 34.94526 -90.02233 4847 ft 257 kts 251°
2026-05-04 15:58 34.94235 -90.04360 5735 ft 262 kts 264°
2026-05-04 15:58 34.94165 -90.06567 6629 ft 265 kts 266°
2026-05-04 15:58 34.94154 -90.08807 7404 ft 269 kts 268°
2026-05-04 15:58 34.94216 -90.11101 8113 ft 275 kts 275°
2026-05-04 15:59 34.94541 -90.13393 8870 ft 277 kts 276°
2026-05-04 15:59 34.94823 -90.15681 9582 ft 280 kts 275°
2026-05-04 15:59 34.95099 -90.18035 10255 ft 285 kts 275°
2026-05-04 15:59 34.95388 -90.20506 10675 ft 302 kts 275°
2026-05-04 16:00 34.95688 -90.23080 11079 ft 319 kts 275°
2026-05-04 16:00 34.96006 -90.25809 11503 ft 335 kts 275°
2026-05-04 16:00 34.96339 -90.28679 11982 ft 350 kts 276°
2026-05-04 16:00 34.96687 -90.31660 12495 ft 364 kts 276°
2026-05-04 16:01 34.97052 -90.34793 13069 ft 377 kts 276°
2026-05-04 16:01 34.97419 -90.37936 13816 ft 383 kts 276°
2026-05-04 16:01 34.97795 -90.41172 14667 ft 387 kts 276°
2026-05-04 16:01 34.98169 -90.44402 15518 ft 391 kts 276°
2026-05-04 16:02 34.98552 -90.47704 16365 ft 395 kts 276°
2026-05-04 16:02 34.98932 -90.50992 17173 ft 399 kts 277°
2026-05-04 16:02 34.99709 -90.57729 18867 ft 406 kts 277°
2026-05-04 16:03 35.00100 -90.61134 19701 ft 409 kts 277°
2026-05-04 16:03 35.00492 -90.64568 20533 ft 412 kts 277°
2026-05-04 16:03 35.00886 -90.68018 21329 ft 415 kts 277°
2026-05-04 16:03 35.01284 -90.71500 22108 ft 417 kts 277°
2026-05-04 16:04 35.01683 -90.75008 22850 ft 420 kts 277°
2026-05-04 16:04 35.02400 -90.82050 24258 ft 425 kts 272°
2026-05-04 16:04 35.02459 -90.85653 24932 ft 428 kts 270°
2026-05-04 16:05 35.02555 -90.89269 25598 ft 431 kts 272°
2026-05-04 16:05 35.02709 -90.92954 26287 ft 434 kts 272°
2026-05-04 16:05 35.03009 -91.00268 27701 ft 439 kts 272°
2026-05-04 16:06 35.03157 -91.03993 28390 ft 442 kts 273°
2026-05-04 16:06 35.03544 -91.14023 30060 ft 448 kts 273°
2026-05-04 16:07 35.03733 -91.19067 30140 ft 442 kts 273°
2026-05-04 16:08 35.04268 -91.33711 30040 ft 433 kts 273°
2026-05-04 16:09 35.04911 -91.52022 29977 ft 431 kts 274°
2026-05-04 16:10 35.05404 -91.66658 30001 ft 431 kts 273°
2026-05-04 16:11 35.05879 -91.81292 30006 ft 431 kts 273°
2026-05-04 16:12 35.06558 -92.03213 30001 ft 431 kts 273°
2026-05-04 16:13 35.06988 -92.17815 29997 ft 430 kts 273°
2026-05-04 16:14 35.07398 -92.32307 30007 ft 430 kts 273°
2026-05-04 16:16 35.07888 -92.50487 29995 ft 429 kts 273°
2026-05-04 16:17 35.08350 -92.68668 29995 ft 430 kts 273°
2026-05-04 16:18 35.08700 -92.83209 29997 ft 430 kts 273°
2026-05-04 16:19 35.09113 -93.01369 30001 ft 430 kts 273°
2026-05-04 16:20 35.09499 -93.19538 29986 ft 430 kts 273°
2026-05-04 16:22 35.09858 -93.37738 29979 ft 430 kts 273°
2026-05-04 16:23 35.10254 -93.59601 29985 ft 430 kts 273°
2026-05-04 16:25 35.10611 -93.81428 30006 ft 431 kts 273°
2026-05-04 16:26 35.10978 -94.06968 29975 ft 431 kts 273°
2026-05-04 16:28 35.11206 -94.25204 29967 ft 429 kts 273°
2026-05-04 16:29 35.11480 -94.50612 29943 ft 428 kts 273°
2026-05-04 16:31 35.11643 -94.68703 29955 ft 427 kts 273°
2026-05-04 16:32 35.11802 -94.90371 29951 ft 425 kts 273°
2026-05-04 16:33 35.11886 -95.04738 29929 ft 425 kts 273°
2026-05-04 16:34 35.11939 -95.15504 29920 ft 424 kts 273°
2026-05-04 16:35 35.12015 -95.37039 29915 ft 423 kts 273°
2026-05-04 16:36 35.12042 -95.47741 29906 ft 422 kts 274°
2026-05-04 16:37 35.12484 -95.58405 29903 ft 420 kts 276°
2026-05-04 16:38 35.13068 -95.72626 29913 ft 420 kts 275°
2026-05-04 16:39 35.13755 -95.90453 29915 ft 420 kts 275°
2026-05-04 16:40 35.14279 -96.04650 29911 ft 419 kts 275°
2026-05-04 16:41 35.14910 -96.22385 29894 ft 418 kts 275°
2026-05-04 16:43 35.15512 -96.40020 29885 ft 417 kts 275°
2026-05-04 16:43 35.15861 -96.50622 29874 ft 417 kts 275°
2026-05-04 16:45 35.16532 -96.71832 29879 ft 417 kts 275°
2026-05-04 16:46 35.17061 -96.89420 29875 ft 416 kts 275°
2026-05-04 16:47 35.17466 -97.03501 29875 ft 415 kts 275°
2026-05-04 16:48 35.17853 -97.17581 29870 ft 415 kts 275°
2026-05-04 16:49 35.18224 -97.31606 29868 ft 414 kts 275°
2026-05-04 16:50 35.18579 -97.45667 29856 ft 414 kts 275°
2026-05-04 16:51 35.18833 -97.56148 29849 ft 414 kts 275°
2026-05-04 16:52 35.19159 -97.70169 29863 ft 414 kts 275°
2026-05-04 16:53 35.19393 -97.80698 29857 ft 414 kts 275°
2026-05-04 16:54 35.19692 -97.94765 29850 ft 414 kts 275°
2026-05-04 16:55 35.20105 -98.15822 29837 ft 414 kts 275°
2026-05-04 16:56 35.20423 -98.33270 29844 ft 412 kts 275°
2026-05-04 16:57 35.20604 -98.43763 29844 ft 411 kts 275°
2026-05-04 16:58 35.20827 -98.57662 29839 ft 411 kts 275°
2026-05-04 17:00 35.21130 -98.78588 29831 ft 410 kts 274°
2026-05-04 17:01 35.21359 -98.95939 29835 ft 410 kts 274°
2026-05-04 17:02 35.21521 -99.09803 29831 ft 409 kts 274°
2026-05-04 17:03 35.21632 -99.20205 29816 ft 409 kts 274°
2026-05-04 17:03 35.21737 -99.30612 29804 ft 408 kts 274°
2026-05-04 17:04 35.21856 -99.44428 29797 ft 408 kts 274°
2026-05-04 17:05 35.21965 -99.58250 29799 ft 407 kts 274°
2026-05-04 17:06 35.22036 -99.68626 29810 ft 407 kts 274°
2026-05-04 17:07 35.22093 -99.77840 29813 ft 407 kts 274°
2026-05-04 17:07 35.22134 -99.85885 29814 ft 407 kts 274°
2026-05-04 17:08 35.22185 -99.96207 29815 ft 407 kts 274°
2026-05-04 17:09 35.22211 -100.03128 29816 ft 407 kts 274°
2026-05-04 17:09 35.22230 -100.10046 29803 ft 406 kts 274°
2026-05-04 17:10 35.22272 -100.27266 29766 ft 405 kts 273°
2026-05-04 17:11 35.22280 -100.34095 29773 ft 405 kts 273°
2026-05-04 17:12 35.22282 -100.44428 29791 ft 405 kts 273°
2026-05-04 17:13 35.22273 -100.61541 29822 ft 405 kts 273°
2026-05-04 17:14 35.22249 -100.75289 29855 ft 404 kts 272°
2026-05-04 17:15 35.22221 -100.85554 29867 ft 404 kts 272°
2026-05-04 17:16 35.22166 -100.99224 29881 ft 404 kts 272°
2026-05-04 17:17 35.22092 -101.12910 29899 ft 402 kts 272°
2026-05-04 17:18 35.22008 -101.26533 29912 ft 402 kts 272°
2026-05-04 17:19 35.21915 -101.40153 29890 ft 402 kts 272°
2026-05-04 17:20 35.21802 -101.53796 29871 ft 402 kts 272°
2026-05-04 17:20 35.21708 -101.64037 29877 ft 402 kts 272°
2026-05-04 17:21 35.21562 -101.77664 29911 ft 403 kts 271°
2026-05-04 17:22 35.21488 -101.84510 29912 ft 403 kts 271°
2026-05-04 17:23 35.21326 -101.98136 29917 ft 402 kts 271°
2026-05-04 17:24 35.21196 -102.08369 29926 ft 402 kts 271°
2026-05-04 17:25 35.21001 -102.21960 29931 ft 401 kts 271°
2026-05-04 17:26 35.20795 -102.35547 29943 ft 399 kts 271°
2026-05-04 17:27 35.20525 -102.52415 29943 ft 398 kts 271°
2026-05-04 17:28 35.20286 -102.65905 29956 ft 397 kts 270°